TimeCDT,TemperatureF,Dew PointF,Humidity,Sea Level PressureIn,VisibilityMPH,Wind Direction,Wind SpeedMPH,Gust SpeedMPH,PrecipitationIn,Events,Conditions,WindDirDegrees,DateUTC
12:15 AM,61.9,57.4,85,30.13,10.0,South,5.8,-,N/A,,Clear,180,2013-07-20 05:15:00
12:35 AM,61.0,57.2,87,30.12,10.0,South,6.9,-,N/A,,Clear,180,2013-07-20 05:35:00
12:55 AM,60.6,56.7,87,30.12,10.0,SSW,5.8,-,N/A,,Clear,200,2013-07-20 05:55:00
1:15 AM,60.1,56.8,89,30.12,10.0,SSE,8.1,-,N/A,,Clear,160,2013-07-20 06:15:00
1:35 AM,59.5,56.3,89,30.12,10.0,South,6.9,-,N/A,,Clear,170,2013-07-20 06:35:00
1:55 AM,59.9,57.0,90,30.11,10.0,South,8.1,-,N/A,,Clear,170,2013-07-20 06:55:00
2:15 AM,60.1,56.8,89,30.11,10.0,South,6.9,-,N/A,,Clear,180,2013-07-20 07:15:00
2:35 AM,59.4,56.7,91,30.10,10.0,South,8.1,-,N/A,,Clear,190,2013-07-20 07:35:00
2:55 AM,59.4,56.5,90,30.10,10.0,South,5.8,-,N/A,,Clear,190,2013-07-20 07:55:00
3:15 AM,59.4,56.7,91,30.09,10.0,SSW,8.1,-,N/A,,Clear,200,2013-07-20 08:15:00
3:35 AM,60.8,57.6,89,30.08,10.0,SSW,9.2,-,N/A,,Clear,200,2013-07-20 08:35:00
3:55 AM,61.0,57.7,89,30.08,10.0,SW,9.2,-,N/A,,Clear,220,2013-07-20 08:55:00
4:15 AM,60.4,57.2,89,30.07,10.0,SSW,10.4,-,N/A,,Clear,210,2013-07-20 09:15:00
4:35 AM,59.9,56.7,89,30.07,10.0,SSW,6.9,-,N/A,,Clear,200,2013-07-20 09:35:00
4:55 AM,59.2,56.3,90,30.06,10.0,SSW,5.8,-,N/A,,Clear,200,2013-07-20 09:55:00
5:15 AM,59.4,55.4,87,30.06,10.0,SSW,6.9,-,N/A,,Clear,200,2013-07-20 10:15:00
5:35 AM,59.0,55.0,87,30.06,10.0,South,3.5,-,N/A,,Clear,190,2013-07-20 10:35:00
5:55 AM,57.7,54.1,88,30.05,10.0,SSW,4.6,-,N/A,,Clear,210,2013-07-20 10:55:00
6:15 AM,57.6,54.3,89,30.04,10.0,SW,6.9,-,N/A,,Clear,230,2013-07-20 11:15:00
6:35 AM,57.9,54.5,88,30.04,10.0,WSW,5.8,-,N/A,,Clear,240,2013-07-20 11:35:00
6:55 AM,58.1,54.5,88,30.04,10.0,WSW,8.1,-,N/A,,Clear,250,2013-07-20 11:55:00
7:15 AM,59.0,55.0,87,30.04,10.0,WSW,8.1,-,N/A,,Clear,240,2013-07-20 12:15:00
7:35 AM,59.9,55.6,86,30.04,10.0,WSW,6.9,-,N/A,,Clear,250,2013-07-20 12:35:00
7:55 AM,61.9,56.5,82,30.04,10.0,WSW,6.9,-,N/A,,Clear,240,2013-07-20 12:55:00
8:15 AM,64.6,57.2,77,30.04,10.0,WSW,8.1,-,N/A,,Clear,240,2013-07-20 13:15:00
8:35 AM,67.3,58.1,72,30.04,10.0,West,8.1,-,N/A,,Clear,260,2013-07-20 13:35:00
8:55 AM,69.6,57.9,66,30.04,10.0,West,8.1,-,N/A,,Clear,260,2013-07-20 13:55:00
9:15 AM,72.7,57.9,60,30.04,10.0,WSW,8.1,-,N/A,,Clear,250,2013-07-20 14:15:00
9:35 AM,74.8,57.6,55,30.05,10.0,WSW,8.1,-,N/A,,Clear,240,2013-07-20 14:35:00
9:55 AM,76.5,57.9,53,30.05,10.0,SW,8.1,-,N/A,,Clear,230,2013-07-20 14:55:00
10:15 AM,77.2,58.1,52,30.04,10.0,SW,6.9,-,N/A,,Clear,230,2013-07-20 15:15:00
10:35 AM,78.4,57.0,48,30.05,10.0,Calm,Calm,-,N/A,,Clear,0,2013-07-20 15:35:00
10:55 AM,79.2,54.1,42,30.05,10.0,Calm,Calm,-,N/A,,Clear,0,2013-07-20 15:55:00
11:15 AM,81.3,56.7,43,30.05,10.0,NE,8.1,-,N/A,,Clear,50,2013-07-20 16:15:00
11:35 AM,81.1,55.6,41,30.05,10.0,East,3.5,-,N/A,,Clear,90,2013-07-20 16:35:00
11:55 AM,83.1,54.7,37,30.06,10.0,ENE,9.2,-,N/A,,Clear,60,2013-07-20 16:55:00
12:15 PM,84.6,54.0,35,30.06,10.0,NE,11.5,17.3,N/A,,Clear,40,2013-07-20 17:15:00
12:35 PM,85.1,51.6,31,30.05,10.0,East,10.4,18.4,N/A,,Clear,80,2013-07-20 17:35:00
12:55 PM,85.1,53.2,33,30.05,10.0,East,15.0,21.9,N/A,,Clear,80,2013-07-20 17:55:00
1:15 PM,84.4,52.3,33,30.04,10.0,East,15.0,21.9,N/A,,Clear,90,2013-07-20 18:15:00
1:35 PM,85.3,52.7,33,30.04,10.0,East,13.8,20.7,N/A,,Clear,100,2013-07-20 18:35:00
1:55 PM,85.8,52.2,31,30.04,10.0,East,11.5,20.7,N/A,,Clear,90,2013-07-20 18:55:00
2:15 PM,86.4,52.5,31,30.04,10.0,ESE,13.8,23.0,N/A,,Scattered Clouds,120,2013-07-20 19:15:00
2:35 PM,87.8,52.9,30,30.03,10.0,SE,13.8,27.6,N/A,,Scattered Clouds,130,2013-07-20 19:35:00
2:55 PM,86.9,52.9,31,30.03,10.0,SE,15.0,31.1,N/A,,Scattered Clouds,140,2013-07-20 19:55:00
3:15 PM,87.4,53.6,31,30.02,10.0,SE,17.3,25.3,N/A,,Scattered Clouds,130,2013-07-20 20:15:00
3:35 PM,87.8,52.0,29,30.02,10.0,SE,11.5,24.2,N/A,,Clear,130,2013-07-20 20:35:00
3:55 PM,87.6,52.3,30,30.02,10.0,SE,10.4,25.3,N/A,,Clear,140,2013-07-20 20:55:00
4:15 PM,84.0,52.2,33,30.02,10.0,SSE,16.1,20.7,N/A,,Scattered Clouds,150,2013-07-20 21:15:00
4:35 PM,82.8,53.2,36,30.02,10.0,SSE,13.8,-,N/A,,Scattered Clouds,150,2013-07-20 21:35:00
4:55 PM,81.1,55.6,41,30.02,10.0,SSE,11.5,-,N/A,,Scattered Clouds,150,2013-07-20 21:55:00
5:15 PM,80.8,55.9,42,30.04,10.0,SSE,12.7,-,N/A,,Mostly Cloudy,160,2013-07-20 22:15:00
5:35 PM,79.7,56.5,45,30.03,10.0,South,11.5,-,N/A,,Light Drizzle,170,2013-07-20 22:35:00
5:55 PM,79.0,57.2,47,30.02,10.0,South,20.7,27.6,N/A,Thunderstorm,Overcast,180,2013-07-20 22:55:00
6:15 PM,81.3,46.4,29,30.06,10.0,WNW,8.1,-,N/A,,Overcast,290,2013-07-20 23:15:00
6:35 PM,74.1,48.0,40,30.10,10.0,NW,20.7,29.9,N/A,Rain,Rain,320,2013-07-20 23:35:00
7:15 PM,71.6,50.5,47,30.10,10.0,West,8.1,16.1,0.01,Rain,Light Rain,260,2013-07-21 00:15:00
7:55 PM,66.9,52.5,60,29.98,10.0,SSW,13.8,-,0.01,,Scattered Clouds,200,2013-07-21 00:55:00
8:15 PM,72.0,49.3,45,29.98,10.0,South,13.8,-,N/A,,Clear,180,2013-07-21 01:15:00
8:35 PM,71.8,48.9,44,29.94,10.0,South,11.5,-,N/A,,Clear,180,2013-07-21 01:35:00
8:55 PM,70.5,48.7,46,29.94,10.0,South,6.9,-,N/A,,Clear,170,2013-07-21 01:55:00
9:15 PM,67.6,49.8,53,29.96,10.0,SSW,5.8,-,N/A,,Clear,210,2013-07-21 02:15:00
9:35 PM,65.5,50.9,59,29.97,10.0,SW,9.2,-,N/A,,Clear,220,2013-07-21 02:35:00
9:55 PM,64.0,52.2,65,29.99,10.0,SW,5.8,-,N/A,,Clear,230,2013-07-21 02:55:00
10:15 PM,62.6,52.3,69,30.00,10.0,SSW,8.1,-,N/A,,Clear,200,2013-07-21 03:15:00
10:35 PM,63.5,51.4,65,30.02,10.0,South,10.4,-,N/A,,Clear,190,2013-07-21 03:35:00
10:55 PM,64.0,51.4,64,30.04,10.0,SW,10.4,-,N/A,,Clear,230,2013-07-21 03:55:00
11:15 PM,63.3,52.7,68,30.04,10.0,SW,3.5,-,N/A,,Clear,230,2013-07-21 04:15:00
11:35 PM,62.2,52.9,71,30.04,10.0,SW,10.4,-,N/A,,Clear,230,2013-07-21 04:35:00
11:55 PM,61.7,53.6,75,30.03,10.0,WSW,10.4,-,N/A,,Clear,240,2013-07-21 04:55:00